METEOR-M2 2

Last updated on Fri Sep 11 2026 00:02:39 GMT+0000 (Coordinated Universal Time)

1 44387U 19038A 26253.59316833 .00000232 00000+0 12021-3 0 9998 2 44387 98.9231 242.1745 0002140 107.1292 253.0121 14.24385590373451
UTC large
Height (km)
Speed (km/s)
/
Latitude / Longitude
Inclination (degrees)
Orbital Period (minutes)
Azimuth
Elevation
Range (km)
Doppler Factor

Next 0 passes for location: London (51.5072 / 0.1276)

No passes found over London.
METEOR-M2 2